CZ-6A DEB, 60675

Orbit data source: Space-Track

CZ-6A DEB, 60675 is space debris in LEO originally from a launch on Tue, 06 Aug 2024 UTC launched from the Taiyaun Space Center, China (TSC). Debris objects in space refer to the collection of defunct objects orbiting the Earth. Examples of debris include non-operational satellites, rocket bodies, and fragments generated from explosions, collisions, or faulty payload assembly.

Loading next visibility...
Identifier
60675, 2024-140CC
Orbit
LEO
Country
Flag of CNCN / PRC
Related business
Manufacturer
SAST
Mission
Spacecraft
Bus & Motor
Unknown
Mass
Unknown
Launch date (UTC)
2024-08-06 (2 years ago)
Launch vehicle
Unknown
Launch site
Taiyaun Space Center, China (TSC)
Object type
Payload
Rocket body
Debris
Shape & HBR
Unknown shape, 0.3 m
Radar Cross Section
Medium (>0.1 m² and <1 m²)

Expand to show TLE details & history
Last TLE update: 15 hours ago

TLE from 15 hours ago
0 CZ-6A DEB
1 60675U 24140CC  26171.29972516  .00000205  00000-0  10336-3 0  9996
2 60675  89.0156 276.5858 0082580 199.7844 160.0133 14.10881014 95906
Epoch: 2026-06-20T07:11Z
TLE epoch observation values (Epoch: 2026-06-20T07:11:36.253Z)
Latitude
-0.00006°
Longitude
-99.83159°
Altitude
915.612 km
Speed
7.365 km/s
True Right ascension
18h 26m 20s
True Declination
0° 00' 00"
Sunlit
Object was in full shadow at epoch
Visualization orbit readout
Latitude
Unknown
Longitude
Unknown
Altitude
Unknown
Speed
Unknown
Apparent Right ascension
Unknown
Apparent Declination
Unknown
Sunlit
N/A
Visualization observer readout
Local Sidereal Time
08:42:11
Azimuth
Unknown
Elevation
Unknown
Doppler factor
Unknown
Orbital elements
Apogee altitude
913.04 km
Perigee altitude
793.605 km
Semi-major axis
7,231.459 km
Eccentricity
0.00826
Inclination
89.0156°
RAAN
276.5858°
Arg. of periapsis
199.7844°
True anomaly
160.33364°
Mean anomaly
160.0133°
Eccentric anomaly
160.17378°
Mean motion
3.52943 °/min
Orbital period
102 mins
BSTAR
0.00010336
Loading maneuver chart data...
Computing Atmospheric mass density...
Loading historical data...
Loading historical data...
Loading historical data...
Loading historical data...
Loading historical data...
Loading historical data...
Loading historical data...

Documentation

Showing up to 5 results
|